RH
51 42 39 37 33 28 24 21 21 21 23 23 23 23 23 23 23 23 24 24 25 26 27 28 29 30 31 31 32 33 35 39 45 52 59 65 70 75 78 80 81 81 81 81 82 82 83 84 82 78 71 61 55 52 52 54 52 45 32 29 31 39 55 72 77 80 88 96 89 78 71 91 99 100 100 90 85 88 98 97 92 85 78 86 93 97 98 99 100 100 98 95 95 96 96 88 86 90 97 99 100 98 94
50 45 42 38 33 28 25 22 21 22 23 23 23 23 23 23 24 24 25 25 26 27 27 28 29 30 31 31 32 32 33 38 44 51 58 62 67 71 76 78 79 80 79 79 79 80 81 81 78 73 66 58 51 47 47 46 42 34 23 25 30 40 53 70 71 71 84 93 89 79 70 88 97 99 99 96 92 90 94 94 94 89 75 86 95 99 100 100 100 100 100 96 94 93 92 89 86 85 86 93 96 95 89
49 47 45 39 33 28 26 23 22 22 23 23 23 23 24 24 25 25 26 26 27 27 28 29 29 30 30 31 31 32 33 36 42 48 55 60 64 68 73 75 77 77 77 77 77 77 78 77 74 68 61 54 52 52 53 51 45 35 24 25 31 40 54 59 62 68 80 88 88 83 75 83 91 96 97 98 96 93 90 92 95 95 86 87 93 99 100 100 100 100 100 98 96 92 88 88 86 83 81 82 83 83 82
48 49 48 42 35 29 26 24 22 22 22 23 23 24 24 25 25 26 27 27 28 28 28 29 29 30 30 30 31 31 32 34 39 45 52 58 63 67 70 72 74 75 75 76 76 77 77 76 73 69 62 56 52 51 51 52 46 36 25 26 32 45 65 73 75 77 85 86 90 92 87 85 86 90 98 97 97 95 89 93 97 98 94 89 93 99 99 100 100 100 100 99 96 91 87 87 87 87 86 82 76 73 77
47 49 50 44 37 31 27 24 22 21 21 22 22 23 24 25 25 26 27 28 28 28 29 29 29 30 30 30 31 31 31 33 36 41 48 56 62 66 68 70 71 73 75 76 78 79 79 77 74 69 63 59 53 49 46 48 44 37 27 27 33 49 77 85 87 88 92 89 87 88 93 94 92 91 97 96 97 98 94 93 96 98 97 92 94 98 100 100 100 100 100 99 97 93 89 88 88 89 90 83 76 73 77
46 48 50 45 38 31 27 24 22 21 21 21 22 22 23 24 25 26 28 28 28 29 29 29 29 29 29 30 30 31 31 32 34 38 44 53 59 64 66 67 69 71 73 76 79 82 81 78 74 68 63 57 51 47 43 44 43 38 29 27 32 47 74 80 86 92 96 90 79 76 94 98 92 85 87 89 94 99 99 93 94 98 99 96 95 96 100 99 99 100 100 100 99 98 96 92 90 90 90 82 76 73 74
46 47 48 45 38 31 26 23 21 20 20 20 21 21 22 23 24 26 27 28 29 29 28 28 28 28 29 29 29 30 31 31 33 35 40 47 54 59 62 63 65 67 68 71 76 80 82 79 73 65 57 50 46 43 40 42 42 38 31 26 30 45 75 82 87 89 88 93 88 82 86 96 99 93 77 80 86 94 99 97 96 95 99 99 95 93 96 95 96 97 98 98 98 98 99 96 94 93 94 85 80 78 80
46 47 47 43 36 30 25 22 21 20 21 21 20 20 21 22 24 25 27 28 29 28 28 28 28 28 28 28 28 29 30 31 31 33 36 42 47 53 58 61 62 63 63 64 67 71 76 75 68 59 48 43 41 40 38 38 37 36 31 26 27 41 71 78 84 85 79 92 96 94 89 94 97 95 89 86 82 82 94 97 98 98 98 99 98 95 91 90 90 92 98 97 96 95 96 94 95 97 98 90 86 86 90
46 46 45 40 34 28 24 21 20 20 21 21 20 19 20 22 23 25 27 28 29 28 28 28 28 28 27 27 27 28 28 29 30 31 33 37 42 48 54 59 61 62 61 60 60 61 64 64 58 50 40 37 35 34 32 30 31 32 30 25 25 34 59 73 82 84 80 88 94 96 95 96 96 97 97 85 75 73 84 93 97 99 99 98 98 97 95 94 93 93 94 93 93 92 91 90 92 94 95 94 91 89 90
45 44 42 37 32 27 23 20 19 19 21 20 19 19 20 22 23 25 27 28 29 28 28 27 27 27 27 27 27 27 27 28 29 30 31 34 38 43 50 56 60 60 59 57 56 55 53 48 43 37 31 29 27 26 23 23 26 29 28 24 23 28 43 63 77 83 81 93 94 91 89 94 94 91 84 76 78 84 86 92 96 98 100 97 95 93 92 89 88 87 85 81 80 79 80 76 72 70 71 74 74 73 72
42 41 38 34 30 25 21 19 19 19 20 19 19 19 20 21 23 26 28 29 29 28 28 27 27 26 26 26 26 27 27 28 29 29 30 32 34 38 44 49 53 53 52 50 48 45 38 32 28 26 25 24 23 21 20 20 24 27 26 22 22 25 33 57 71 80 88 92 86 77 71 84 83 77 72 77 87 94 90 91 93 93 92 89 83 76 67 61 58 58 60 58 54 52 54 56 59 58 53 50 46 43 43
39 37 34 31 27 24 20 19 19 20 20 19 18 18 20 21 24 26 28 29 29 28 28 27 27 26 26 26 26 27 28 28 29 30 30 31 32 34 36 39 41 41 40 39 36 32 26 22 21 20 21 20 20 19 20 19 21 23 22 20 20 29 54 67 74 80 90 89 79 69 66 83 87 85 82 89 94 96 91 80 73 69 66 62 57 52 49 47 46 46 44 43 41 40 39 40 41 42 40 37 33 28 25
36 33 31 28 25 22 19 19 19 20 20 18 18 18 20 22 24 26 29 29 29 28 28 27 27 27 27 27 27 28 29 29 30 30 30 30 30 30 30 30 30 30 29 28 26 23 19 19 19 18 18 17 17 17 18 18 19 20 18 17 17 29 66 72 77 81 86 80 70 67 81 94 98 96 94 97 98 95 87 71 60 53 50 49 50 51 52 51 47 42 37 33 30 28 26 25 24 24 24 23 20 18 15
34 31 28 26 23 20 18 19 20 20 18 18 18 19 20 22 25 27 28 29 28 28 28 27 27 28 28 28 29 29 30 30 30 29 29 28 28 27 26 25 24 23 22 21 20 18 18 18 18 18 17 17 16 16 16 17 17 16 14 15 16 27 57 70 77 81 84 72 64 68 93 98 98 97 96 98 98 94 85 74 66 61 60 61 62 63 60 53 45 36 29 24 21 19 17 16 15 13 13 12 11 10 10
32 30 27 24 22 19 19 20 20 19 17 17 18 19 21 23 25 27 28 28 28 28 27 28 28 29 29 30 30 30 30 30 29 29 28 27 25 24 23 21 20 19 18 18 18 17 17 18 18 18 18 16 15 15 16 15 14 13 12 13 17 30 60 68 74 79 84 72 64 69 96 99 100 99 97 97 95 90 82 74 73 74 74 74 71 66 58 50 41 31 24 19 16 14 13 12 11 10 10 9 9 8 8
32 29 26 24 21 20 20 21 21 19 17 18 19 20 22 24 26 27 28 28 28 28 28 28 28 29 30 30 30 31 30 30 29 28 27 25 24 22 21 20 19 18 17 17 17 17 18 18 18 18 18 16 15 14 16 15 13 11 11 12 14 29 68 64 71 79 80 71 67 72 92 97 98 98 98 95 89 81 75 68 68 71 73 70 65 58 51 44 37 29 21 17 14 12 11 10 10 9 9 8 8 7 7
31 28 26 24 22 20 21 22 21 19 18 19 20 22 23 25 26 28 28 28 28 28 28 28 29 30 30 31 31 31 31 30 30 28 27 26 24 22 21 19 18 17 17 17 17 18 18 19 20 19 18 16 15 14 16 15 12 10 10 11 16 34 78 70 71 76 75 66 66 74 87 92 90 89 95 87 76 68 66 63 61 61 60 57 53 48 42 36 30 24 19 15 12 10 9 9 9 9 9 8 7 7 7
28 27 25 23 22 21 22 22 21 20 19 21 22 23 24 26 27 28 28 28 29 29 29 29 30 30 31 32 32 32 32 31 31 30 28 27 25 23 22 20 19 18 18 18 19 19 20 21 21 20 20 17 15 15 16 15 12 10 10 10 17 35 66 77 74 67 67 63 61 66 83 81 76 74 78 69 60 55 55 53 50 47 45 42 39 35 30 25 22 19 17 14 12 10 9 9 9 9 9 8 8 8 7
26 25 23 22 21 22 22 22 21 21 21 22 23 24 25 26 27 28 29 29 30 30 31 31 31 32 32 33 33 34 33 33 32 31 30 28 27 25 23 21 20 20 20 20 20 21 21 21 21 21 21 18 16 14 16 14 12 10 10 10 14 29 61 77 75 66 63 63 59 58 72 70 65 60 57 52 47 43 37 35 33 31 30 27 25 22 19 18 16 15 14 12 11 10 9 9 9 9 9 8 8 8 8
24 23 22 21 21 22 22 22 21 21 21 23 24 26 26 27 28 28 29 30 31 32 32 33 33 33 34 35 35 35 35 35 34 33 32 30 28 27 25 24 23 22 22 22 22 22 22 22 22 22 22 20 17 15 15 14 12 10 10 9 17 35 68 69 68 66 65 65 60 55 56 56 53 47 42 39 37 34 30 29 27 25 22 20 18 17 15 15 14 13 12 11 10 10 9 9 9 9 9 8 8 8 8
24 23 22 22 22 22 22 21 21 21 21 23 25 26 27 28 28 29 29 30 31 33 34 34 35 35 36 36 37 37 37 37 36 35 34 32 31 29 27 26 26 25 24 24 24 24 23 24 24 24 24 23 19 16 15 14 12 11 10 9 19 38 60 57 57 60 64 67 63 56 51 45 40 35 33 32 31 30 29 28 26 24 21 18 17 15 13 13 12 11 10 10 9 9 9 9 9 9 8 8 8 8 7
25 24 23 23 24 24 23 22 21 21 21 22 24 26 28 29 29 30 30 31 32 33 35 36 37 37 38 38 38 38 38 38 37 36 35 34 33 32 30 29 28 28 27 26 26 25 24 25 25 25 25 25 22 18 15 14 12 11 10 9 16 31 54 54 52 51 56 60 57 52 46 39 34 31 30 30 31 30 29 27 24 22 19 17 15 13 11 10 10 9 9 9 9 9 9 9 8 8 8 8 8 7 7
25 25 24 25 25 25 24 22 21 21 21 21 23 26 28 30 31 31 32 32 33 34 35 36 38 39 40 40 40 40 39 39 38 37 36 36 35 34 33 32 31 30 30 28 27 26 25 26 26 26 27 26 24 20 17 14 12 11 10 10 13 25 49 55 51 46 51 50 48 44 38 35 32 30 30 30 30 29 27 24 21 19 16 14 12 11 10 10 9 9 9 9 8 8 9 8 8 8 8 8 7 7 7
24 24 24 25 25 25 24 23 22 21 21 21 22 24 27 30 32 33 34 34 34 35 36 37 38 39 40 40 40 40 40 39 39 38 38 38 37 37 36 35 34 33 32 31 29 27 26 26 27 28 28 28 26 22 18 15 13 11 10 10 12 21 44 59 54 46 50 49 44 39 35 33 31 30 29 29 28 26 24 20 18 15 13 11 10 10 10 9 9 9 8 8 8 8 8 8 8 8 8 7 7 7 7
23 23 23 24 25 25 24 22 22 21 21 21 22 23 26 28 31 33 35 35 36 36 37 37 38 39 39 39 40 40 40 39 39 39 39 40 39 39 38 37 37 36 35 33 31 28 27 28 28 29 29 29 27 24 19 16 13 11 10 10 11 19 40 55 54 48 49 46 42 37 33 31 29 28 27 26 24 22 19 16 14 12 11 11 10 10 9 9 9 8 8 8 8 8 8 8 8 8 8 7 7 7 7
27 26 25 24 24 24 23 22 21 21 21 21 22 24 25 27 30 33 35 36 37 38 38 38 39 39 39 39 39 39 39 38 38 38 39 40 40 41 41 40 39 39 37 35 33 30 28 29 29 30 31 31 28 25 20 17 14 11 10 10 10 16 31 42 46 46 46 41 37 33 31 29 27 26 25 22 19 17 15 13 12 11 11 10 10 9 9 9 8 8 8 8 8 8 8 8 8 8 8 8 8 7 7
34 31 29 27 25 24 22 21 20 20 20 20 22 23 25 27 30 32 35 37 38 39 39 40 40 40 39 39 39 39 38 37 37 37 38 39 40 40 41 42 42 42 41 39 36 32 30 30 31 31 32 32 30 26 21 18 14 12 10 10 10 13 18 26 34 39 44 37 33 31 29 27 25 23 21 18 15 13 12 11 11 11 10 10 9 9 9 9 8 8 8 8 8 8 9 9 8 8 8 8 8 8 8
38 37 34 30 27 24 22 21 20 20 20 20 21 22 25 27 29 32 35 38 40 42 42 41 41 41 41 40 40 40 38 37 37 37 37 38 39 40 41 42 43 43 43 42 39 35 32 31 32 32 33 33 31 28 23 19 15 12 11 10 10 11 13 16 20 27 38 34 31 30 28 25 22 20 17 15 13 12 11 11 11 10 10 10 9 9 9 9 9 8 8 8 8 8 9 9 9 8 8 8 8 8 8
36 36 36 33 29 24 21 21 21 22 23 23 23 23 25 26 27 29 32 36 41 45 46 44 43 42 42 42 42 41 39 38 38 38 39 39 39 40 41 42 43 44 45 44 42 39 35 33 33 33 34 34 33 30 25 21 17 13 11 10 10 10 12 13 14 17 23 26 26 26 23 20 17 15 13 13 12 11 11 11 10 10 10 9 9 9 9 9 9 9 9 9 9 9 9 9 9 8 8 8 8 8 8
36 34 34 34 30 26 21 22 24 26 28 28 28 27 26 27 27 27 26 30 35 42 47 47 46 44 44 43 43 41 39 38 38 38 39 40 41 42 43 43 44 45 45 46 45 42 38 35 34 34 35 35 34 32 28 23 19 15 12 11 10 10 10 12 13 14 16 18 18 18 16 14 13 12 12 12 12 11 11 11 10 10 10 9 9 9 9 9 9 9 9 9 9 9 9 9 9 8 8 8 8 8 8
44 40 37 35 32 29 25 25 26 28 30 31 32 32 31 30 29 28 27 27 29 33 39 43 45 45 45 44 43 41 39 38 38 39 40 41 43 44 45 45 45 45 45 46 46 45 41 38 36 36 36 36 36 35 32 27 22 18 14 12 10 10 10 11 12 13 13 14 14 14 14 13 13 12 12 12 11 11 11 11 10 10 10 10 10 9 9 9 9 9 9 9 9 9 9 9 9 8 8 8 8 8 8
52 49 45 41 37 33 31 31 32 32 32 31 32 35 37 36 35 34 33 33 33 32 32 35 38 41 43 43 42 41 39 39 39 40 41 42 44 46 47 48 47 47 45 46 47 47 45 41 38 37 37 37 37 36 35 30 26 21 16 13 11 10 10 10 11 11 12 13 13 13 13 13 13 12 12 12 12 12 12 11 11 10 10 10 10 10 10 9 9 9 9 9 9 9 9 9 9 9 8 8 8 8 8
56 56 54 50 45 40 37 37 37 37 36 35 35 37 40 42 42 41 41 42 42 41 38 37 37 39 41 43 43 42 40 39 39 40 41 43 45 47 49 50 50 49 46 46 47 48 48 44 41 39 38 38 38 38 37 34 30 25 19 15 13 11 10 10 10 11 11 12 13 13 13 13 13 13 13 12 12 12 12 11 11 11 11 10 10 10 10 10 10 9 9 9 9 9 9 9 9 9 8 8 8 8 8
59 60 59 57 53 48 44 41 40 40 41 40 40 41 43 45 47 47 47 48 49 49 48 45 43 42 43 44 45 44 42 40 39 39 40 42 44 47 50 52 52 51 48 46 47 48 50 47 44 41 39 38 38 38 38 37 33 28 23 18 14 12 11 11 11 11 11 12 12 13 13 13 14 13 13 13 13 13 13 12 12 12 11 11 11 11 11 10 10 10 10 10 10 10 9 9 9 8 8 8 8 9 9
62 62 62 60 58 54 49 45 43 43 45 45 45 46 46 47 49 50 50 51 52 54 55 53 51 49 47 47 47 46 44 41 39 38 38 40 42 45 49 52 54 53 50 48 48 49 51 50 47 43 40 39 39 39 39 38 36 32 26 21 17 14 12 11 11 11 11 11 12 12 13 13 14 14 14 14 14 13 13 12 12 12 12 12 12 12 12 11 11 11 11 11 11 10 10 9 9 8 8 8 9 9 9
63 63 62 61 59 56 52 49 47 47 47 48 48 49 50 50 51 51 52 52 53 54 55 55 55 53 50 48 47 45 43 41 38 36 35 37 39 43 47 52 54 54 52 51 50 51 53 53 51 46 42 40 39 39 39 39 38 35 30 24 19 15 13 12 12 12 12 12 12 12 12 13 13 14 14 14 14 14 13 13 13 12 12 12 12 12 12 12 12 12 12 12 12 11 11 10 9 8 8 8 9 9 9
63 62 60 59 58 57 55 53 51 50 50 50 50 51 52 53 53 54 54 53 53 53 53 54 54 53 51 48 46 43 41 39 37 35 33 34 36 40 44 49 52 54 53 52 52 53 55 56 54 51 45 43 41 40 40 40 39 38 34 28 23 18 15 13 12 12 12 12 12 12 12 12 13 13 14 14 14 14 14 13 13 12 12 12 12 13 13 12 12 12 12 13 13 13 12 11 10 9 9 9 9 9 10
64 62 60 59 59 59 59 58 56 55 54 54 53 54 55 56 56 57 57 56 54 53 53 52 52 51 50 48 46 43 41 39 37 35 33 33 35 37 41 45 49 52 53 54 54 55 57 58 59 56 51 47 43 41 41 41 40 40 37 32 27 22 18 15 13 13 12 12 12 12 12 12 12 13 14 14 15 14 14 13 12 12 12 12 13 13 13 13 13 13 13 13 13 14 14 12 11 10 10 10 10 10 10
66 64 63 62 63 64 65 64 63 62 60 60 59 59 59 60 61 61 61 60 58 56 54 52 51 50 49 48 46 44 41 39 37 36 34 34 35 36 38 43 47 50 52 54 55 55 57 59 61 61 59 53 48 44 43 42 41 41 40 36 32 26 21 18 15 14 13 13 13 13 13 12 12 13 13 14 14 14 14 13 13 12 12 13 13 14 14 14 14 13 14 14 14 14 15 15 14 12 11 11 11 11 11
70 68 67 68 68 70 71 71 71 69 67 66 66 65 65 66 66 66 65 64 62 60 57 55 53 51 50 48 47 45 43 40 39 37 36 36 35 36 37 41 44 48 51 53 54 55 55 58 61 63 63 59 54 50 46 44 43 42 42 40 36 32 26 21 18 15 14 13 13 13 13 13 13 13 13 13 14 14 14 13 13 12 13 13 14 14 15 14 14 14 14 14 15 15 16 16 16 15 14 13 12 12 12
75 74 73 74 74 76 77 78 77 76 74 72 72 71 71 71 71 70 69 68 66 64 61 59 56 54 52 50 49 48 46 43 42 40 39 38 37 37 37 39 43 46 49 52 53 54 54 56 59 62 65 64 60 56 50 47 45 43 43 42 40 36 31 26 21 18 15 14 14 13 13 13 13 13 13 13 13 14 14 13 13 12 13 13 14 15 15 15 15 15 15 15 15 15 16 16 17 17 16 16 15 14 14
80 79 79 80 80 81 82 83 83 82 80 78 77 76 76 76 75 74 73 72 71 69 66 63 60 58 55 54 52 51 50 48 45 44 42 41 39 39 38 39 41 44 47 50 52 54 54 55 58 60 63 65 65 62 57 52 48 45 44 43 42 40 36 31 26 21 18 16 15 14 13 13 13 13 13 13 13 13 13 13 12 12 12 13 14 15 15 15 15 15 15 15 15 15 16 17 17 18 18 18 17 17 17
85 85 85 85 85 86 86 87 87 86 85 83 81 80 79 79 78 78 77 76 74 72 69 67 64 61 59 58 56 54 53 51 49 46 45 43 42 40 39 39 40 42 45 49 52 54 55 56 58 60 62 65 66 66 63 59 54 50 46 44 43 42 40 36 31 26 21 18 16 15 14 13 13 13 13 13 13 13 13 12 12 11 12 12 13 14 15 15 15 15 15 15 15 15 16 16 17 18 18 18 18 18 18
88 89 90 90 90 90 90 90 90 89 88 86 85 83 82 81 81 80 80 79 77 74 71 69 66 64 62 61 60 58 57 55 53 51 49 47 44 42 41 40 40 42 44 48 51 54 56 58 60 61 62 64 66 67 67 64 60 56 51 47 45 43 42 40 36 31 26 21 18 16 15 14 13 13 13 13 13 13 12 12 11 11 11 12 13 14 15 15 15 15 15 15 15 15 16 16 17 18 18 19 19 19 19
90 90 92 93 94 94 93 93 92 92 91 89 88 86 85 84 83 83 82 81 79 76 73 70 68 66 64 63 62 61 61 60 59 58 56 52 49 46 43 41 41 42 45 48 51 53 56 58 60 62 63 64 65 67 69 69 67 63 57 52 48 45 44 43 40 36 31 26 22 18 16 15 14 13 13 13 13 13 12 12 11 11 11 12 13 14 15 15 15 16 16 16 16 16 16 17 17 18 18 19 19 20 20
91 92 93 94 95 96 96 95 94 93 93 92 91 89 87 85 85 84 83 81 79 76 74 72 70 68 66 64 64 64 64 64 64 64 62 59 55 52 49 46 44 45 46 48 50 52 55 58 60 62 64 64 65 66 69 71 72 70 66 59 53 49 46 45 43 41 37 32 26 22 19 16 15 13 13 13 13 13 12 12 11 11 11 12 13 14 15 15 16 16 16 16 16 16 16 17 17 18 18 19 20 20 20
92 93 93 94 95 97 98 97 96 95 94 94 92 90 88 86 85 84 82 81 79 77 75 74 73 71 69 68 67 67 67 67 68 68 67 64 62 59 56 53 50 49 49 50 51 52 55 57 59 61 63 64 65 66 68 72 75 76 74 68 61 55 50 47 45 43 41 37 32 27 22 19 16 14 13 13 13 12 12 12 11 11 11 11 12 13 14 15 16 16 16 16 16 17 17 17 18 18 18 19 19 20 21
90 92 93 94 96 97 98 98 98 97 97 95 94 92 90 88 86 84 82 80 79 77 76 76 76 75 73 72 71 70 70 70 71 71 70 68 67 65 62 60 57 55 54 53 53 54 54 56 57 59 61 63 65 66 68 72 76 79 80 76 71 65 58 53 49 46 44 41 36 32 26 22 19 16 14 13 13 12 12 12 11 11 11 11 12 13 14 15 15 16 16 17 17 17 18 18 18 18 19 19 19 20 20
87 91 93 94 96 98 99 99 99 99 98 97 95 93 92 90 88 85 83 82 80 79 78 79 79 78 77 76 75 74 74 74 74 74 73 73 71 69 67 65 63 62 60 59 58 57 56 56 56 57 59 61 64 67 69 72 76 79 81 81 80 76 69 62 55 50 46 43 40 36 31 26 22 18 16 14 13 13 12 12 11 11 11 11 12 12 13 14 15 16 16 17 17 18 18 18 18 19 19 19 19 20 20
86 90 93 95 97 99 100 100 99 99 99 98 96 95 94 93 90 87 85 84 83 82 82 82 82 81 81 80 78 76 76 76 76 76 76 75 74 72 69 67 66 65 64 63 61 60 59 58 57 57 58 60 64 67 70 73 75 78 81 84 85 83 79 72 65 58 51 47 43 40 36 31 26 22 18 15 14 13 13 12 12 11 11 11 11 12 13 14 14 15 16 17 17 18 18 18 19 19 19 19 19 19 20
86 88 91 94 97 99 99 99 99 99 99 98 97 96 96 94 92 89 87 86 85 85 85 86 85 84 84 83 81 80 79 79 78 78 78 77 76 73 70 67 65 64 63 62 61 60 60 60 60 59 58 60 62 66 69 72 75 78 81 83 86 87 85 81 75 68 61 54 48 43 39 35 30 26 21 17 15 14 13 13 12 12 12 11 11 12 12 13 14 15 16 17 17 18 18 19 19 19 19 19 19 19 19
86 87 89 92 95 97 97 98 99 99 99 99 98 97 96 94 93 91 89 87 86 86 86 86 86 86 86 85 84 82 81 80 80 79 79 78 77 75 71 67 63 61 61 60 59 59 59 60 60 61 60 60 61 63 66 70 73 76 79 82 84 86 87 85 82 77 71 64 56 49 43 39 35 30 25 20 17 15 14 14 13 13 12 12 12 12 12 12 13 14 15 16 17 18 18 18 19 19 19 19 19 19 19
87 88 90 92 94 96 97 99 99 99 99 100 99 98 97 95 93 92 91 89 88 87 87 87 87 87 87 86 85 84 84 83 82 81 80 79 77 74 70 66 63 62 60 58 57 57 58 59 60 60 60 60 60 61 63 66 68 71 75 78 81 83 84 84 82 80 77 72 65 57 49 43 38 34 29 24 20 17 15 15 14 13 13 12 12 12 12 12 12 13 14 16 17 18 18 18 19 19 19 19 19 19 19
85 85 87 89 92 94 96 97 97 98 99 100 100 99 98 96 94 93 91 90 90 89 88 88 88 88 88 87 86 85 85 85 84 83 82 80 77 73 68 67 65 64 63 61 60 59 60 60 61 61 62 61 60 60 61 62 64 66 69 73 76 78 79 79 78 77 77 76 71 64 56 49 43 38 33 28 23 20 17 16 15 14 14 13 13 12 12 12 12 13 14 15 16 17 18 18 19 19 19 19 19 19 20
82 82 83 85 87 88 89 90 91 94 97 99 100 100 99 98 96 94 93 92 91 90 90 90 90 90 89 89 88 87 87 86 85 85 83 82 80 76 72 69 68 67 66 64 63 63 64 64 64 63 64 63 61 60 60 60 61 62 64 67 69 72 74 74 73 73 74 73 70 65 59 52 46 41 36 31 27 23 19 17 16 15 14 14 14 13 12 12 12 13 14 15 16 17 18 19 19 19 19 19 20 20 20
80 81 83 84 85 85 86 88 89 91 94 98 100 100 100 98 97 96 95 94 93 92 91 91 91 91 91 90 89 89 88 87 87 86 85 84 82 80 77 73 71 70 69 68 67 66 67 68 67 67 66 66 64 62 62 61 60 60 61 62 64 65 66 67 67 68 69 68 66 63 59 53 48 43 38 34 30 26 22 20 18 16 15 15 14 14 13 13 13 13 14 15 16 17 18 19 19 20 20 20 20 20 20
81 81 82 84 85 85 87 88 89 90 92 96 98 100 100 99 99 98 97 96 95 94 93 93 92 92 92 92 91 90 89 88 88 88 87 85 83 82 79 75 74 73 72 72 72 73 75 75 73 72 70 68 65 63 62 61 60 59 58 58 59 59 60 60 61 61 63 63 62 60 57 53 48 44 40 36 33 29 26 23 20 18 17 16 16 15 15 14 14 14 14 15 16 17 18 19 20 21 21 21 21 21 20
82 83 83 85 86 87 88 88 89 90 91 93 96 98 100 100 99 99 98 97 96 95 94 94 94 94 94 93 92 90 89 89 89 88 88 86 85 83 80 78 76 75 74 76 77 79 82 84 84 83 77 73 69 66 63 60 58 57 56 56 55 55 55 55 56 56 57 58 58 57 55 51 48 44 41 38 35 32 28 26 23 21 20 19 18 17 16 16 15 15 15 15 16 17 18 19 21 22 22 22 22 21 21
84 85 85 87 88 88 89 90 90 91 91 92 94 97 99 99 99 99 99 98 97 96 96 96 96 96 96 94 93 91 91 91 91 91 90 89 87 85 83 81 78 75 74 74 76 78 81 84 87 87 85 77 71 67 65 61 59 57 55 54 53 53 52 52 52 52 52 53 53 53 52 50 47 44 41 39 36 33 31 28 26 24 23 21 20 19 18 18 17 17 17 17 17 17 18 20 21 22 23 23 23 22 21
86 88 88 89 90 90 90 91 92 93 93 93 94 96 98 99 99 99 99 99 99 99 99 98 98 98 98 97 96 95 95 95 95 94 93 92 91 89 87 85 83 80 77 74 74 76 79 82 85 88 89 83 77 71 67 64 61 59 55 54 52 51 51 51 50 50 50 50 50 49 48 47 45 43 41 39 37 35 33 31 29 27 26 24 23 22 21 20 19 19 18 18 18 18 19 20 22 23 24 24 23 23 22
88 90 91 89 88 88 89 93 94 95 95 95 96 97 98 99 99 99 99 99 99 99 99 99 99 99 99 99 99 99 99 99 99 98 97 97 96 95 93 92 90 88 84 78 76 75 77 80 82 85 90 93 90 85 78 72 67 63 59 56 53 51 50 49 49 49 49 48 48 47 46 45 44 42 41 40 38 36 34 33 31 29 28 27 26 24 23 22 21 21 20 20 20 20 21 22 23 24 24 24 24 23 23
Wind_Speed
12 12 11 11 11 11 12 13 14 14 14 14 13 13 13 13 13 13 13 14 14 14 14 15 15 15 15 16 17 18 20 21 22 23 23 23 22 22 21 20 18 17 15 14 13 12 11 9 7 4 2 1 1 1 1 1 2 3 4 4 4 4 4 5 6 6 6 5 4 5 9 11 12 11 9 8 9 9 10 10 8 8 9 11 12 12 11 12 13 14 14 13 13 13 12 11 12 12 13 14 13 12 10
12 11 10 10 10 11 12 12 13 13 13 13 12 12 12 12 12 12 12 12 13 13 13 14 14 14 15 16 17 18 19 20 21 22 22 22 21 21 20 19 18 17 15 13 12 11 10 8 5 3 2 1 1 1 2 2 2 3 4 4 4 4 4 4 4 5 5 4 3 4 8 10 11 11 9 7 7 7 6 7 7 7 8 12 16 18 20 19 17 15 15 13 11 9 9 9 9 9 7 8 10 10 9
12 11 10 9 10 10 11 12 12 13 13 12 12 11 11 11 11 11 11 12 12 12 13 13 13 14 14 15 16 17 18 19 20 20 20 20 20 20 19 18 17 16 15 13 12 11 9 7 5 3 2 1 1 2 3 3 3 3 4 5 5 5 4 4 4 4 4 4 3 4 6 8 9 9 8 6 5 4 5 6 7 7 8 11 15 17 19 18 16 14 12 11 9 7 5 4 4 5 4 4 6 8 9
12 11 10 9 9 10 11 11 12 12 12 12 11 11 10 10 10 10 10 11 11 12 12 12 13 13 14 14 15 16 17 18 18 19 19 19 19 18 18 17 16 15 14 13 12 11 10 7 5 3 2 1 1 2 3 4 4 4 5 5 6 6 6 5 5 4 4 4 4 5 6 6 7 8 8 7 6 5 5 7 10 10 8 9 11 12 14 15 15 13 11 8 6 4 3 2 2 3 3 3 4 6 9
12 11 9 9 8 9 10 10 11 11 11 11 11 10 9 9 9 9 9 10 10 11 11 12 12 13 13 14 14 15 16 16 17 17 17 18 18 18 17 16 15 14 13 13 12 11 10 8 5 3 2 1 1 1 3 4 4 4 5 6 6 6 7 6 5 4 4 2 3 5 6 5 5 7 8 8 7 6 5 7 9 10 9 9 8 9 9 11 12 12 10 7 5 4 3 1 1 2 3 4 4 5 7
11 10 9 8 8 8 9 10 10 10 10 10 10 9 8 8 8 8 8 9 9 10 10 11 11 12 12 13 13 14 14 15 15 16 16 17 17 17 16 15 14 13 13 12 12 11 10 8 6 4 2 1 0 1 3 4 4 4 5 6 6 6 6 5 4 4 4 2 3 5 7 5 4 5 6 7 7 7 6 6 6 8 11 10 9 8 7 7 8 8 8 7 6 5 3 2 1 1 3 4 5 4 5
11 10 9 8 8 8 9 9 9 9 9 9 9 8 8 7 7 7 7 8 8 9 9 10 10 11 11 12 12 13 13 14 14 15 15 16 16 16 15 14 13 12 11 11 11 11 10 8 6 4 3 2 1 1 3 3 4 4 5 5 5 5 5 3 3 3 3 3 3 4 6 6 4 3 3 5 5 6 6 6 5 6 8 10 10 9 7 6 5 4 3 4 4 3 2 1 1 2 3 4 4 3 3
11 10 10 9 8 8 8 8 8 8 8 8 8 8 7 7 6 6 7 7 7 8 8 9 9 10 10 11 11 12 12 12 13 13 14 14 14 14 14 13 12 11 10 9 8 8 8 7 6 4 3 3 2 1 2 3 4 4 5 5 5 4 4 3 2 1 1 2 3 3 4 4 4 2 2 3 4 5 6 6 6 5 5 8 10 10 8 7 5 3 2 1 2 2 2 2 3 4 4 4 3 2 1
11 11 10 9 9 9 8 8 8 8 8 7 7 7 7 6 6 6 6 6 6 7 7 8 8 9 9 10 10 11 11 11 12 12 13 13 13 13 12 11 11 10 8 7 7 6 7 6 5 4 4 3 2 2 3 4 4 4 5 5 4 3 3 2 1 1 1 1 2 3 3 4 4 3 2 2 4 5 6 6 7 6 6 7 8 9 8 7 5 4 3 2 2 3 4 4 3 3 4 4 4 3 2
12 11 11 10 10 9 9 8 8 8 7 7 7 7 6 6 6 6 6 6 6 7 7 7 7 8 8 9 9 9 10 10 10 11 11 11 11 11 11 10 9 8 7 7 6 6 6 6 6 5 4 3 2 2 4 4 4 4 4 4 4 3 2 1 1 1 1 1 2 3 4 4 5 4 3 4 5 6 6 7 7 7 6 8 7 6 5 5 4 3 3 3 3 4 4 5 5 5 5 5 5 6 6
12 12 11 11 10 10 9 9 8 8 7 7 7 6 6 6 6 6 6 6 6 6 7 7 7 7 7 8 8 8 9 9 9 9 10 10 10 10 10 9 8 7 7 6 6 6 6 6 6 5 3 2 2 3 4 4 4 4 4 4 3 2 1 1 0 1 0 1 2 3 3 3 4 4 3 4 5 6 7 8 8 8 7 7 6 4 3 2 2 2 2 3 4 4 5 5 6 7 7 7 7 7 7
12 12 11 11 11 10 10 9 8 8 8 7 6 6 6 6 6 6 6 6 7 7 7 7 7 7 7 7 7 7 8 8 8 8 9 9 9 9 9 8 8 7 6 6 5 5 5 5 5 4 2 1 2 3 4 4 3 3 3 3 3 2 2 1 1 1 0 2 2 2 3 3 3 3 2 4 5 6 7 7 8 7 6 6 5 4 2 1 1 2 3 4 4 5 5 6 7 7 8 8 8 8 8
12 12 12 11 11 10 9 9 8 8 7 7 6 6 6 6 6 6 6 7 7 7 7 7 7 7 6 6 6 6 7 7 7 7 8 8 8 8 8 8 7 7 6 6 5 5 4 4 3 2 1 1 2 3 3 3 3 3 3 3 2 1 2 1 1 1 0 1 2 3 5 4 3 3 3 5 5 6 6 7 6 6 5 4 3 2 0 1 2 3 4 4 4 5 5 5 6 6 7 7 7 7 6
13 12 12 11 11 10 9 9 8 8 7 7 6 6 6 6 6 6 7 7 7 7 7 7 7 6 6 6 6 6 6 6 6 7 7 7 8 8 8 8 7 7 6 6 5 5 4 3 2 1 1 2 3 3 2 2 2 2 2 2 1 1 1 1 1 0 0 0 1 5 7 6 4 4 5 6 6 6 6 6 5 4 3 1 0 1 3 4 4 5 5 5 4 4 4 4 4 4 4 4 4 4 3
13 12 12 11 11 10 9 9 8 7 7 7 7 6 6 6 6 7 7 7 7 7 7 7 7 7 6 6 6 5 5 5 6 6 6 7 7 7 8 7 7 6 6 5 5 5 4 3 2 2 2 3 3 3 2 2 2 2 2 1 0 1 2 2 1 1 1 1 1 5 9 8 6 5 6 7 6 5 5 5 4 3 2 2 3 4 4 5 6 6 6 5 4 3 3 2 2 2 2 1 1 1 1
12 12 11 11 10 9 9 8 8 7 7 7 7 7 6 7 7 7 8 8 8 8 8 7 7 7 7 6 6 6 6 6 6 6 6 6 7 7 7 7 7 6 6 5 5 5 4 3 2 2 2 3 3 2 2 2 2 2 2 1 1 2 2 3 2 1 1 0 2 5 9 8 7 6 7 6 6 4 3 2 2 2 3 3 4 5 5 5 6 7 6 5 4 3 2 2 2 1 1 1 2 2 2
12 12 11 10 10 9 9 8 7 7 6 6 6 6 6 7 7 8 8 8 8 8 8 8 8 7 7 7 7 6 6 6 6 6 6 6 7 7 7 7 6 6 5 5 5 4 3 3 3 3 2 3 3 3 2 2 2 2 2 1 1 3 3 4 3 3 1 0 2 5 7 8 8 7 7 5 4 2 1 1 2 2 3 4 4 4 5 5 6 6 6 5 4 3 3 2 2 2 2 2 3 3 3
11 11 11 11 10 10 9 9 8 7 6 6 6 6 6 6 7 7 8 8 8 8 8 8 8 8 8 7 7 7 7 7 7 7 7 7 7 7 6 6 6 6 5 5 4 3 3 3 4 4 3 3 3 3 2 3 3 2 2 1 2 3 3 4 4 5 4 2 1 3 7 7 7 6 6 4 2 1 1 2 3 3 4 4 4 5 5 5 5 5 5 4 4 3 3 3 3 3 3 3 3 3 3
11 11 11 11 11 10 10 10 9 8 7 7 7 7 7 7 7 7 8 8 8 8 8 8 8 8 8 8 7 7 7 7 7 7 7 7 7 7 7 6 6 5 5 4 4 3 3 4 4 4 4 4 3 3 2 3 3 3 2 1 2 3 3 4 4 5 5 4 3 3 5 6 6 4 3 2 1 1 2 3 4 4 5 5 5 5 5 5 4 4 4 4 3 3 3 3 3 3 3 3 3 3 3
11 11 11 11 11 11 11 11 10 9 8 8 8 8 8 8 8 8 8 8 8 8 8 8 8 8 8 7 7 7 8 8 8 8 7 7 7 7 7 6 6 6 5 4 4 3 3 5 5 5 4 4 4 3 3 3 3 3 2 1 2 3 4 4 4 4 5 5 5 5 5 4 3 2 2 1 2 2 4 5 5 5 5 5 5 5 4 4 3 3 3 3 3 3 3 3 3 2 3 3 3 3 2
11 11 11 11 11 11 11 11 10 10 9 9 9 9 9 9 9 9 9 9 9 9 8 8 8 8 8 8 8 8 8 8 8 8 8 8 7 7 7 7 6 6 6 5 4 3 4 6 6 6 5 5 4 4 3 3 3 3 2 2 2 4 5 5 5 5 5 5 6 6 6 4 2 2 2 3 3 4 5 6 6 6 6 6 5 4 4 3 2 2 2 2 2 3 3 2 2 2 2 2 2 2 3
11 12 12 12 11 11 11 11 10 10 9 9 10 10 10 11 11 10 10 10 10 10 9 9 9 9 8 8 8 8 8 9 9 9 8 8 8 8 7 7 7 7 6 5 4 4 5 6 7 6 5 5 5 4 4 4 4 3 3 2 3 4 5 6 6 6 5 5 6 7 6 5 4 4 4 4 4 5 5 6 6 6 6 5 5 4 3 2 2 2 2 2 2 2 2 2 2 2 2 2 2 2 3
11 12 12 12 12 12 11 11 10 10 9 9 10 10 11 11 11 11 11 11 11 11 10 10 10 10 9 9 9 9 9 10 10 9 9 9 9 8 8 8 8 8 7 6 5 5 6 7 7 6 5 5 5 5 5 4 4 4 3 3 4 5 5 6 7 7 6 5 6 6 6 5 5 5 5 5 5 5 6 6 6 6 5 5 4 3 3 2 2 2 2 2 2 2 2 2 2 2 2 2 2 2 3
12 12 12 12 12 12 12 11 11 10 10 10 9 10 11 11 12 12 12 12 12 11 11 11 11 10 10 10 10 10 11 11 11 11 10 10 10 9 9 9 9 9 7 6 6 6 6 8 8 7 6 5 5 5 5 5 5 4 4 4 4 5 6 6 7 7 7 6 6 6 6 6 6 6 6 5 5 6 6 6 5 5 5 4 4 3 3 2 2 2 2 2 2 2 2 2 2 2 2 2 2 2 2
12 13 13 13 13 13 12 12 11 11 11 10 10 10 11 11 12 12 13 12 12 12 12 12 11 11 11 11 11 11 12 12 12 12 11 11 11 11 11 10 10 9 8 7 6 6 7 9 9 8 6 5 5 5 5 5 5 5 5 5 5 5 6 7 7 8 8 8 7 7 7 7 6 6 6 6 6 6 5 5 5 5 4 4 4 3 3 2 2 2 2 2 2 2 2 2 2 2 2 2 2 2 2
13 13 14 14 14 13 13 13 12 12 12 11 10 10 11 12 12 13 13 13 13 12 12 12 12 12 12 12 12 12 12 13 13 12 11 11 12 12 12 11 11 10 9 8 7 7 8 9 10 9 7 6 5 5 5 6 6 5 5 5 5 6 7 8 8 8 9 9 9 8 8 7 7 7 7 6 6 6 5 5 5 5 4 4 4 3 3 3 3 3 3 3 3 3 3 3 2 2 2 2 2 2 2
13 14 14 14 14 14 14 14 13 13 13 12 11 11 11 12 13 13 13 13 12 12 12 12 13 13 13 13 13 13 13 13 13 12 11 11 11 11 11 11 11 10 9 9 8 8 8 10 10 10 8 6 6 5 6 6 6 6 6 6 6 6 8 9 9 9 9 9 9 9 8 8 8 7 7 7 6 6 6 5 5 5 5 4 4 4 3 3 3 3 3 3 3 3 3 3 3 2 2 2 2 2 2
13 13 14 15 15 15 15 15 15 14 14 13 13 12 12 12 13 13 14 13 12 12 11 12 13 13 13 13 14 14 14 14 13 11 11 11 11 11 11 11 11 11 10 9 9 9 9 10 11 11 10 8 6 6 6 6 6 6 6 6 6 7 8 9 9 9 9 10 10 9 9 8 8 8 7 7 7 7 6 6 6 5 5 4 4 4 4 4 4 4 4 3 3 3 3 3 3 3 3 3 2 3 3
14 14 14 15 16 16 16 16 16 15 15 14 14 13 13 13 13 14 14 13 13 12 12 12 13 13 13 14 15 15 14 14 13 12 11 11 11 11 11 11 11 11 11 10 10 9 10 11 12 12 11 9 7 6 6 6 6 6 6 7 7 7 8 9 10 10 10 10 10 10 9 9 9 8 8 8 8 7 7 6 6 6 5 5 4 4 4 4 4 4 4 4 4 4 3 3 3 3 3 3 3 3 3
15 15 16 16 16 16 16 17 17 17 16 15 15 14 14 14 14 14 14 14 13 12 12 12 13 13 14 15 15 15 15 14 13 12 12 12 12 11 12 12 13 13 12 12 11 10 10 12 13 13 13 11 9 7 7 7 7 7 7 7 7 8 8 9 10 11 11 11 11 10 10 10 9 9 9 8 8 8 7 7 7 6 6 5 5 5 5 5 4 4 4 4 4 4 4 4 4 3 3 3 3 3 3
16 16 16 17 17 17 17 17 17 17 17 16 15 14 14 14 14 14 15 14 13 12 12 13 13 14 14 15 16 16 16 15 14 13 13 13 13 13 13 13 14 14 14 13 12 11 11 13 14 15 14 13 11 9 7 7 7 7 7 8 8 8 9 9 10 11 11 11 11 11 11 10 10 10 9 9 9 8 8 8 7 6 6 6 5 5 5 5 5 5 5 5 4 4 4 4 4 4 4 4 3 3 3
16 16 16 17 17 18 18 18 18 18 18 17 16 14 13 13 14 15 16 16 15 14 13 13 13 14 14 15 15 16 16 16 15 14 14 14 14 14 14 15 16 16 16 15 14 13 12 13 15 15 16 15 13 11 9 8 8 8 8 8 8 9 9 10 10 11 11 11 12 12 12 11 11 10 10 10 9 9 8 8 7 7 7 6 6 6 6 6 6 5 5 5 5 5 5 5 5 4 4 4 4 4 4
17 17 17 17 18 18 19 19 19 19 19 18 17 15 13 13 13 15 16 17 17 17 16 15 15 14 14 15 15 16 17 17 16 16 16 16 15 15 15 16 17 18 18 17 15 14 13 14 15 16 16 16 15 13 11 9 9 9 9 9 9 9 10 10 11 11 11 12 12 12 12 12 11 11 11 10 10 9 9 8 8 8 7 7 7 7 6 6 6 6 5 5 5 5 5 5 5 5 5 5 4 4 4
18 18 18 17 18 18 19 19 20 20 20 20 19 18 16 14 14 15 16 17 18 19 19 19 18 17 17 16 16 17 17 18 18 17 17 17 17 17 17 17 18 19 19 19 17 16 15 15 16 17 17 17 17 15 14 11 10 9 9 9 9 10 10 11 11 11 12 12 12 12 12 12 12 12 11 11 10 10 9 9 9 8 8 7 7 7 7 7 6 6 6 6 6 5 5 5 5 5 5 5 5 5 4
19 18 18 18 18 18 19 19 20 20 20 20 20 20 19 17 16 16 17 18 19 20 21 21 21 20 19 19 18 18 18 19 19 19 18 18 18 18 18 18 19 20 20 20 19 18 17 16 17 17 18 18 18 17 16 14 12 10 10 10 10 10 11 11 11 12 12 12 13 13 13 13 13 12 12 11 11 11 10 10 9 9 8 8 8 7 7 7 7 7 7 6 6 6 6 6 6 6 5 5 5 5 5
19 18 18 18 18 18 18 19 19 20 21 21 21 21 21 20 19 18 18 19 20 21 22 22 22 22 21 21 21 20 20 20 20 20 19 19 19 19 19 19 20 21 21 21 20 19 18 18 17 18 18 18 18 18 18 16 14 12 11 11 11 11 11 12 12 12 13 13 13 13 14 14 13 13 13 12 12 11 11 10 10 10 9 9 8 8 8 8 7 7 7 7 7 7 6 6 6 6 6 5 5 5 5
19 19 18 18 18 18 18 18 18 19 20 21 21 22 22 22 22 20 20 20 20 21 22 23 23 23 23 23 23 22 22 22 21 21 20 20 20 20 20 21 21 22 22 22 21 21 20 19 18 18 19 19 19 19 19 18 16 14 12 12 12 12 12 12 13 13 13 14 14 14 14 14 14 14 13 13 13 12 12 11 11 10 10 10 9 9 8 8 8 8 8 8 8 8 7 7 6 6 6 5 5 5 5
20 19 18 18 17 17 18 17 18 18 19 20 21 22 22 23 23 22 21 21 21 22 22 23 24 25 25 25 25 24 24 23 23 22 21 21 21 21 21 22 22 22 23 23 22 22 21 20 19 19 19 20 20 20 20 20 18 16 14 13 13 13 13 13 14 14 14 14 14 15 15 15 15 14 14 14 14 13 13 12 12 11 11 10 10 10 9 9 9 9 9 9 9 8 8 7 7 6 6 5 5 5 5
21 20 19 18 18 18 18 17 17 18 18 20 21 21 22 22 23 23 22 22 22 22 22 23 24 25 26 26 26 26 25 25 24 23 22 22 22 22 22 23 23 23 23 23 23 23 22 21 21 20 21 21 21 21 21 21 20 18 16 15 14 14 14 14 14 14 14 14 15 15 15 15 15 15 15 15 15 14 14 14 13 13 12 11 11 11 10 10 9 9 9 9 9 9 9 8 7 6 6 6 5 5 5
21 20 20 20 19 19 18 17 17 18 18 19 20 21 21 22 22 23 23 22 22 22 22 23 24 25 26 27 27 27 26 26 25 24 23 23 22 23 23 24 24 25 25 25 24 24 23 22 22 22 22 22 22 22 22 22 21 20 18 17 16 15 15 15 15 15 15 15 15 16 16 16 16 16 16 16 16 15 15 15 14 14 13 12 12 11 11 11 10 10 10 10 10 10 10 9 8 7 6 6 6 5 5
20 20 20 20 20 19 19 18 18 18 18 19 20 20 21 22 22 23 23 22 22 22 22 23 24 25 26 26 27 27 27 26 26 25 24 24 23 24 24 25 25 26 26 26 25 25 24 24 23 23 23 23 23 23 23 23 23 22 21 19 18 17 16 16 16 16 16 16 16 16 16 16 17 17 17 17 17 16 16 16 16 15 14 13 13 12 12 11 11 11 10 10 10 10 10 10 9 9 7 7 6 6 6
20 20 20 20 20 20 19 19 19 18 19 19 20 21 21 22 22 22 22 22 22 22 23 23 23 24 25 25 26 26 26 26 26 25 25 24 24 24 25 26 27 27 27 27 27 26 25 25 24 24 24 24 24 25 25 24 24 23 22 21 20 19 18 17 17 17 16 16 16 16 17 17 17 18 18 18 18 17 17 17 17 16 15 15 14 13 12 12 12 11 11 11 11 11 11 11 11 10 9 8 7 7 6
20 20 20 20 20 20 20 20 20 19 19 20 21 21 22 22 22 22 22 22 22 23 23 23 23 24 24 25 25 25 26 26 26 25 25 25 25 25 26 27 28 28 28 28 28 28 27 26 25 25 25 25 26 26 26 26 25 24 24 23 22 21 20 19 18 18 17 17 17 17 17 17 18 18 19 19 19 19 18 18 18 17 17 16 15 14 13 13 12 12 12 12 11 11 11 11 11 11 10 9 8 8 7
20 20 20 21 20 20 20 20 20 21 21 21 21 22 23 23 23 23 23 23 23 23 23 23 24 24 25 25 25 25 25 26 25 25 25 25 25 26 27 27 28 29 29 30 30 29 28 27 26 26 26 27 27 27 27 27 26 25 25 24 24 23 22 21 20 19 18 18 18 17 17 18 18 19 19 20 20 19 19 19 19 18 18 17 16 15 14 14 13 13 13 12 12 12 12 12 12 12 12 11 10 9 9
20 21 21 21 21 21 21 21 22 22 22 22 22 23 23 24 24 24 24 24 24 24 25 24 24 24 25 25 25 25 25 25 25 25 25 25 26 26 27 28 29 29 30 30 30 30 29 29 28 28 28 28 28 28 28 27 27 26 26 25 25 25 24 23 22 21 20 19 18 18 18 18 18 19 20 20 20 20 20 20 20 20 19 18 17 17 16 15 14 14 13 13 13 13 13 13 13 13 13 12 11 11 10
21 21 21 21 21 21 22 22 23 23 23 23 24 24 24 25 25 26 26 26 26 26 26 25 25 25 25 25 25 25 25 25 26 26 26 26 27 27 28 28 29 29 30 30 31 31 30 30 30 29 29 29 29 29 29 28 28 27 27 27 27 27 26 25 24 23 22 21 20 19 18 18 19 19 20 20 21 21 21 21 21 21 20 20 19 18 17 16 15 15 14 14 14 14 14 14 14 14 13 13 13 12 11
22 22 22 22 22 21 22 22 24 24 25 25 25 25 26 27 27 27 28 28 28 28 27 27 26 26 26 26 26 26 26 26 26 27 27 27 27 28 28 29 29 30 30 30 31 31 31 31 31 31 31 31 31 30 30 29 28 28 28 28 28 28 28 27 26 25 24 22 21 20 19 19 19 19 20 20 21 21 22 22 22 22 22 21 20 19 18 17 16 16 15 15 15 14 14 14 14 14 14 14 13 13 13
23 23 23 23 23 22 22 23 24 25 26 27 27 27 28 28 28 29 29 29 29 29 28 28 28 27 27 27 27 27 27 27 27 28 28 28 28 28 29 29 30 30 30 31 31 32 32 32 32 32 32 32 32 32 31 30 29 29 29 28 29 29 29 29 28 27 25 24 23 22 21 20 19 19 20 20 21 22 23 23 23 23 23 22 21 20 19 18 17 17 16 16 16 15 15 15 15 14 14 14 14 14 13
23 23 24 24 24 24 23 23 24 25 27 28 29 29 29 29 29 29 29 29 29 29 29 29 29 29 28 29 29 28 29 29 28 28 28 28 28 29 29 29 30 30 31 31 31 32 32 33 33 34 34 34 33 33 32 32 31 30 30 29 29 30 30 30 29 28 27 25 24 23 22 21 20 20 20 20 21 22 23 24 24 24 24 23 22 21 20 19 18 18 17 17 16 16 16 15 15 15 14 14 14 14 14
22 23 24 24 25 25 25 24 24 25 26 28 29 29 29 29 29 30 30 30 30 30 30 30 30 30 30 30 30 30 30 30 29 28 28 29 30 30 30 30 30 30 30 31 31 32 33 34 35 35 35 35 34 34 33 33 32 31 31 31 30 31 31 30 30 29 28 27 26 25 24 23 22 21 20 21 22 23 24 24 25 25 25 24 23 22 21 20 19 19 18 18 17 17 16 16 16 15 15 14 14 14 14
22 23 24 24 25 25 25 25 25 24 25 26 27 28 29 29 30 30 31 31 31 31 31 31 31 31 31 31 31 31 31 30 30 30 30 31 32 31 30 29 29 30 30 31 32 33 34 35 36 36 36 36 35 35 34 34 33 32 32 32 32 32 31 31 31 30 29 28 27 26 26 25 23 22 21 21 22 23 24 25 25 26 25 25 24 24 22 21 20 20 19 18 18 18 17 17 16 15 15 15 15 14 14
23 23 24 24 25 25 25 25 25 25 24 25 26 27 28 29 30 31 31 32 32 32 33 32 32 32 32 32 32 31 31 31 32 32 32 33 32 30 28 26 25 26 29 30 31 33 34 35 36 37 37 37 36 36 35 35 34 34 34 33 33 33 32 32 31 31 30 30 29 28 27 26 25 24 22 22 22 23 25 25 26 26 26 26 26 25 24 23 22 21 20 19 19 18 18 17 17 16 16 15 15 15 15
23 23 23 24 24 25 25 25 25 25 25 25 26 27 28 29 30 31 32 32 33 33 34 34 33 33 33 33 33 33 33 33 33 34 33 32 30 28 27 26 24 23 23 22 25 30 33 35 36 37 37 37 37 37 36 36 36 35 35 35 34 34 34 33 32 32 32 31 31 30 29 28 26 25 24 23 23 24 25 26 26 27 27 27 27 26 25 24 23 22 21 20 20 19 18 18 17 17 16 16 16 16 16
22 23 23 23 24 24 24 24 24 24 25 25 26 27 28 29 30 31 32 33 34 34 35 35 34 33 33 34 34 34 34 34 34 34 34 33 31 28 26 26 26 24 22 20 19 21 27 31 34 36 36 35 36 36 36 37 37 37 36 36 36 35 35 34 33 33 33 33 32 31 30 29 28 27 25 25 24 25 25 26 26 27 27 27 27 27 26 25 24 23 22 22 21 20 19 18 18 17 17 17 17 17 17
22 22 23 23 23 23 24 24 24 24 24 25 26 27 28 29 30 31 32 33 34 34 34 35 35 34 34 35 35 35 35 35 35 34 34 35 34 32 29 26 25 23 20 19 19 19 22 24 26 29 31 32 32 34 35 36 36 36 36 36 36 35 35 34 34 34 34 34 33 32 31 30 29 28 27 26 26 26 26 26 27 27 28 28 28 28 27 26 25 24 23 23 22 21 20 19 18 18 18 18 18 18 18
21 22 22 23 23 24 24 24 24 24 25 25 26 27 28 29 29 30 31 32 33 33 34 34 34 35 35 35 36 36 36 36 36 36 35 36 37 36 34 29 24 19 16 16 18 20 21 21 22 24 27 28 29 31 32 33 34 34 35 35 35 35 34 34 34 34 34 34 33 33 32 31 30 29 28 27 27 26 27 27 27 28 28 28 29 28 28 27 26 25 24 23 23 22 21 20 19 19 19 19 19 19 18
20 21 22 22 23 23 24 24 25 25 25 25 26 27 28 29 29 30 30 31 32 33 33 34 34 35 35 36 36 36 36 36 37 37 36 36 37 37 37 35 31 26 21 18 17 17 17 16 15 15 18 22 24 25 27 28 30 31 32 33 33 33 33 34 34 34 34 33 33 33 32 31 31 30 29 28 27 27 27 28 28 28 28 29 29 29 28 28 27 26 25 24 24 23 22 21 20 20 20 20 19 19 19
20 20 21 21 22 23 24 25 25 25 25 25 25 26 27 28 30 31 31 32 32 32 33 33 34 34 34 34 33 33 32 33 34 35 36 36 36 37 38 38 37 35 32 28 25 22 20 19 16 14 15 18 21 23 24 25 26 28 29 31 31 32 32 32 33 33 33 33 33 33 32 32 31 30 29 29 28 28 28 28 28 29 29 29 29 29 28 28 27 27 26 25 25 24 23 22 22 21 21 20 20 20 20
19 19 19 20 21 22 23 24 25 25 25 25 25 25 26 28 29 30 31 32 32 32 32 32 32 32 31 29 28 28 28 28 30 31 32 33 34 36 37 38 38 37 36 35 34 32 29 25 23 22 19 17 19 21 23 24 25 26 27 29 29 30 31 31 32 32 32 32 32 32 32 32 31 31 30 29 28 28 28 28 29 29 29 29 29 29 28 28 28 27 27 26 26 25 24 23 23 22 21 21 20 20 20
20 19 19 19 21 22 23 23 24 24 25 25 25 25 26 27 29 30 30 30 30 31 31 31 31 30 29 26 25 25 26 26 26 26 27 29 31 34 35 36 37 38 37 37 37 36 35 33 30 25 20 18 18 19 21 24 25 25 26 27 28 29 30 31 31 32 32 32 32 32 32 32 31 31 30 29 29 28 28 28 29 29 29 30 29 29 29 29 28 28 28 27 27 26 25 24 23 23 22 21 21 20 20
20 20 20 20 20 21 22 23 23 24 24 24 25 26 27 27 28 28 28 28 29 29 29 30 30 30 29 28 27 25 25 25 24 24 24 26 28 31 32 33 35 36 37 38 39 39 39 38 36 32 28 25 23 22 22 23 25 25 26 27 28 29 30 30 31 31 32 32 32 32 32 32 31 31 31 30 29 28 28 28 29 29 30 30 30 30 30 29 29 29 28 28 27 26 25 25 24 23 22 21 20 20 20
Wind_Direction
126 119 113 109 106 105 106 107 107 106 105 104 104 103 102 100 99 99 99 100 102 103 105 107 108 109 110 111 111 113 115 117 118 118 117 116 116 115 115 115 115 114 115 114 113 112 111 114 121 132 145 169 181 169 136 92 55 32 22 19 20 27 41 51 55 59 64 62 59 83 106 104 99 97 102 104 109 102 83 71 63 64 77 86 88 88 93 104 117 126 127 119 115 114 111 107 103 98 92 91 97 104 104
132 126 119 113 110 109 110 111 112 111 110 109 108 106 105 103 102 101 101 103 105 106 108 109 111 111 112 112 114 115 117 119 120 121 120 120 119 119 118 118 117 117 117 116 114 112 111 114 123 137 155 179 181 155 123 100 75 52 37 32 33 40 53 66 65 61 67 60 58 88 115 117 108 99 96 95 110 119 101 74 65 70 84 97 102 103 103 109 115 120 123 129 133 130 117 110 111 112 107 92 90 95 101
136 131 126 120 114 113 114 116 117 116 115 114 112 110 108 105 104 104 104 106 108 110 111 112 113 114 114 115 116 117 119 121 123 124 124 123 123 122 121 121 120 120 119 117 114 110 108 109 114 123 138 161 155 132 113 100 81 56 41 35 37 45 54 54 57 67 78 69 64 90 119 128 118 106 101 95 99 110 107 90 86 86 90 105 112 111 106 107 110 114 120 130 140 148 147 128 117 122 131 113 88 84 89
139 137 134 127 121 119 119 121 122 121 120 118 116 114 110 108 106 106 107 109 110 112 114 115 116 117 117 117 118 119 120 123 125 126 127 127 126 125 125 124 123 122 120 118 116 113 111 111 112 115 115 122 112 104 98 88 72 50 36 33 37 44 50 46 48 62 86 97 97 99 112 129 131 124 116 105 93 91 103 109 106 103 105 115 122 119 109 108 111 115 117 120 127 139 156 145 123 128 135 135 106 85 82
143 142 140 135 128 124 124 125 126 125 123 121 119 116 114 111 109 108 109 111 112 114 115 117 118 119 120 120 120 120 122 124 127 129 130 130 130 130 129 128 127 125 124 122 120 119 120 122 123 125 121 103 50 60 73 70 59 42 32 28 35 46 52 48 46 54 74 103 115 110 110 122 138 139 132 117 102 93 100 119 116 110 115 124 128 123 110 108 113 116 115 111 97 84 86 56 53 109 123 126 117 96 83
147 146 145 142 136 131 129 129 128 127 124 122 120 118 117 115 113 111 111 112 114 116 118 119 121 122 122 122 122 123 124 126 129 131 133 133 134 134 134 132 131 130 128 127 126 127 129 132 136 140 148 163 325 9 42 51 47 35 27 24 36 52 61 54 51 58 69 70 107 122 121 123 139 155 150 132 115 106 105 121 123 116 116 127 138 136 118 107 105 107 111 114 102 82 66 39 36 116 132 127 118 100 80
152 150 149 146 141 136 133 131 129 128 125 123 121 120 121 120 118 115 114 115 117 119 120 122 123 124 125 125 125 126 127 129 131 133 136 137 139 139 139 138 137 136 136 134 134 134 137 142 147 156 170 195 260 342 20 35 34 26 21 19 33 56 75 73 62 62 72 57 75 116 133 126 119 134 170 153 134 122 121 126 135 131 118 128 142 152 145 129 119 117 124 130 129 123 115 114 158 181 165 145 126 100 69
155 153 152 150 146 141 137 134 131 130 127 125 124 124 126 126 124 120 119 120 121 122 123 124 125 127 127 128 128 129 129 131 133 136 139 142 144 145 145 144 144 144 145 144 144 144 146 150 159 174 192 213 245 313 3 18 19 15 11 12 25 51 76 76 50 17 51 68 75 101 132 134 125 130 195 171 152 144 141 141 145 150 146 142 148 156 163 165 170 181 189 172 181 192 189 187 187 185 180 169 160 145 90
158 157 155 153 150 146 142 138 136 133 131 128 127 128 131 132 130 128 127 127 127 127 127 128 129 130 131 131 131 132 133 134 136 139 143 146 149 151 152 152 152 152 153 153 152 151 150 153 164 183 207 230 258 311 351 0 0 359 360 3 14 40 74 79 40 339 295 117 125 132 133 142 153 162 169 130 130 140 148 153 151 153 167 174 164 158 165 173 186 200 217 244 251 247 246 250 238 215 204 203 214 230 243
161 159 159 157 154 150 147 143 141 139 136 133 131 133 136 137 136 135 135 136 135 134 134 134 134 135 135 136 136 136 136 137 139 141 145 149 153 156 158 160 160 161 160 159 157 155 154 157 164 180 204 234 274 322 348 351 347 344 348 353 3 23 64 73 44 9 310 154 163 164 148 151 165 168 139 111 114 130 145 152 156 163 178 192 186 169 162 166 181 201 224 241 252 257 260 264 269 268 258 246 249 259 265
163 162 161 160 158 155 151 148 145 143 141 138 137 140 142 142 140 140 141 143 143 142 141 141 140 141 141 141 141 141 140 141 142 144 147 151 155 159 162 165 167 168 167 166 165 164 164 165 169 178 196 230 291 332 348 347 342 336 340 345 351 4 38 71 27 338 289 195 192 182 162 145 147 147 122 108 116 134 149 150 158 169 181 185 180 168 156 156 172 210 241 256 264 266 264 260 261 264 269 269 269 270 272
166 165 164 163 161 158 155 151 149 147 145 143 144 147 149 147 145 145 146 148 149 149 148 148 147 148 147 148 147 147 145 145 145 147 149 152 156 160 164 168 172 173 174 174 175 177 178 178 179 184 198 251 316 339 350 348 340 334 336 339 344 7 56 44 348 324 215 220 209 177 135 110 108 113 109 113 129 148 157 156 160 164 160 153 148 146 151 171 270 289 287 284 282 280 274 267 263 263 267 272 275 276 276
169 168 167 166 164 161 157 155 153 151 149 148 150 154 155 154 151 149 151 154 155 155 155 154 153 154 154 154 153 153 151 150 150 151 152 155 158 161 165 169 174 177 180 182 185 189 194 198 202 209 235 312 341 351 356 350 339 332 333 333 337 31 80 66 333 324 115 189 173 139 113 101 97 108 119 133 154 169 164 160 155 147 134 129 128 129 185 299 307 311 308 302 296 291 284 278 274 271 270 272 275 279 282
171 171 170 169 166 163 160 158 156 154 153 153 156 161 163 160 157 155 157 158 160 161 160 160 159 160 160 160 160 159 158 156 156 156 157 159 161 164 167 171 175 180 184 189 195 202 210 226 251 287 331 354 3 7 5 352 337 330 331 325 329 105 127 182 208 215 229 355 126 123 115 113 116 125 134 152 169 178 171 165 160 154 145 147 210 299 309 311 314 317 318 317 312 306 298 290 283 279 276 276 279 283 287
173 173 172 171 169 166 164 162 160 158 157 158 162 168 170 167 163 161 162 164 165 166 166 165 165 166 166 167 166 166 165 163 163 163 164 165 167 169 171 174 178 183 189 197 206 215 224 244 275 309 341 3 16 21 15 354 338 333 328 310 250 163 167 201 208 208 233 293 112 122 122 128 135 141 145 162 174 179 175 173 174 185 215 256 282 296 307 314 320 323 325 327 327 326 322 313 304 295 293 301 312 328 344
177 177 176 174 172 170 168 166 165 163 161 162 166 173 176 173 169 167 167 167 169 170 170 170 171 170 170 171 171 171 170 170 169 170 171 172 174 175 178 180 184 189 196 206 217 227 235 254 279 304 336 6 23 31 19 359 346 340 330 291 203 172 175 214 219 197 203 303 120 129 132 143 151 152 150 166 178 183 182 189 201 224 253 270 284 296 307 317 323 328 330 334 340 348 353 355 354 359 23 43 48 53 56
181 180 179 177 176 174 173 171 169 167 166 166 170 177 182 179 175 173 172 172 173 174 174 175 175 174 175 174 175 174 175 175 175 176 177 179 181 182 185 189 193 198 205 214 226 236 247 268 285 302 336 13 31 34 16 359 353 349 333 270 191 175 184 210 209 196 197 98 120 137 144 154 157 152 147 159 176 195 232 278 289 284 281 284 292 302 311 319 325 329 331 337 346 360 11 18 21 28 40 51 55 58 60
186 184 182 181 180 178 176 176 174 173 170 170 175 180 185 184 181 179 178 177 177 177 178 178 178 178 178 179 179 179 179 180 180 182 183 185 187 189 192 196 201 207 215 224 234 245 262 280 291 305 336 12 29 30 11 358 353 349 333 267 195 182 189 202 212 219 229 243 190 153 151 152 150 145 140 148 169 233 290 304 306 303 302 301 304 310 317 322 326 328 330 335 346 360 13 23 30 35 40 47 52 56 58
191 189 188 186 184 183 181 179 179 177 175 175 179 183 186 186 186 184 184 182 182 182 182 182 182 182 182 184 185 185 185 185 185 186 188 190 193 195 199 203 208 214 223 233 244 258 274 285 293 307 333 2 18 18 1 350 346 344 330 267 201 185 191 206 220 228 230 234 219 176 156 152 149 149 153 166 205 297 315 314 314 312 312 311 312 315 320 324 328 329 328 333 341 355 8 19 28 35 37 42 46 51 54
196 196 195 193 191 188 186 184 183 182 180 179 181 184 186 187 187 188 188 188 188 188 188 187 187 188 189 189 191 193 194 193 192 192 193 196 199 201 204 209 214 219 226 236 248 262 276 283 291 305 329 350 3 2 346 337 336 334 319 266 206 189 193 210 225 230 227 224 213 197 180 168 166 179 206 237 281 306 316 317 316 314 313 312 314 318 322 327 330 327 325 329 337 347 358 9 20 28 32 35 38 42 46
201 202 202 201 199 196 193 190 188 187 185 184 184 186 187 187 188 189 190 191 191 191 192 192 193 194 195 196 198 201 202 202 201 198 198 201 204 208 212 216 220 224 229 236 245 258 272 280 288 302 325 343 350 346 332 323 322 320 305 262 215 203 210 221 230 234 230 211 205 203 201 204 218 242 258 278 295 306 311 312 312 311 311 313 316 321 325 329 331 326 320 324 332 339 348 358 10 18 23 27 28 32 35
208 208 209 210 208 205 202 198 196 195 193 191 189 189 190 190 190 190 191 193 193 194 195 196 197 198 199 201 203 206 209 212 210 207 204 205 208 212 217 222 227 230 232 236 242 253 266 275 283 296 317 335 340 334 320 311 309 305 292 262 223 212 220 227 232 235 235 214 205 207 213 227 252 270 276 283 294 301 304 306 307 307 307 311 315 320 324 328 328 319 312 318 322 329 336 347 358 6 15 17 22 24 25
215 216 217 217 216 214 211 207 205 204 205 201 198 196 196 195 193 193 193 194 196 196 198 200 201 202 203 204 206 208 211 215 216 214 210 209 212 216 220 225 229 232 233 234 238 247 260 268 276 287 305 323 329 323 311 304 300 295 283 261 234 218 219 229 233 234 235 226 216 217 228 245 261 271 276 281 288 295 298 299 301 301 302 307 311 314 318 319 315 307 302 306 313 319 325 336 347 356 1 7 14 17 20
221 222 223 223 223 222 219 216 214 214 215 213 210 207 205 202 199 196 196 196 198 199 200 203 205 207 208 209 210 210 211 214 217 217 213 212 214 218 223 227 230 232 232 232 234 243 254 263 271 279 293 310 317 313 303 297 293 288 278 262 243 225 218 225 232 236 238 236 234 237 246 254 261 267 272 279 286 291 293 294 295 296 297 301 303 305 305 301 297 294 294 297 302 309 315 327 336 346 351 358 5 9 11
222 225 227 228 228 227 225 223 222 222 223 223 221 219 217 212 206 202 200 199 200 201 203 206 209 212 214 216 217 218 217 217 217 216 215 214 215 219 223 227 231 233 233 232 234 241 252 261 268 275 284 297 304 301 294 290 287 282 274 262 246 229 219 225 232 237 241 244 247 252 257 259 261 265 270 276 281 286 288 288 288 289 292 294 294 294 292 289 284 282 286 291 296 301 307 316 326 333 339 345 351 358 1
222 225 228 231 232 232 230 229 229 229 230 230 229 227 225 220 214 209 205 203 203 205 207 210 213 216 219 222 225 227 227 226 223 220 218 218 219 221 225 229 233 236 236 235 236 242 251 261 267 272 278 287 293 291 286 283 280 276 271 264 250 234 223 227 233 237 240 246 251 255 258 259 262 265 269 274 278 280 281 282 283 283 286 287 286 285 284 279 277 277 278 282 288 294 301 307 315 321 325 328 334 341 346
228 228 230 232 234 235 235 234 234 235 237 237 235 232 229 225 222 217 212 208 207 209 212 215 218 220 223 226 229 233 236 237 235 230 226 227 228 229 232 235 237 239 239 238 240 244 252 261 267 272 275 281 284 283 279 276 273 271 267 264 255 242 231 231 233 235 239 245 251 254 255 258 261 264 269 273 275 276 277 277 278 279 279 278 277 275 273 273 272 272 273 277 281 287 293 298 304 308 312 314 322 328 331
239 237 235 234 235 236 237 238 238 239 241 243 243 239 234 230 227 224 220 214 212 214 219 223 224 226 227 229 232 235 239 244 246 243 240 240 241 242 243 245 245 245 244 243 244 248 254 262 267 271 273 276 278 278 274 271 269 267 264 261 257 250 242 239 238 237 240 245 250 252 253 257 260 264 268 271 273 273 273 273 274 274 272 271 269 266 265 265 266 268 269 272 275 278 284 286 292 296 299 305 311 319 321
250 248 245 241 238 236 236 237 238 239 241 244 247 247 244 239 236 233 229 222 217 218 223 228 231 233 234 235 236 238 240 245 249 251 251 251 253 253 254 254 254 252 250 249 248 251 255 262 267 271 273 274 274 274 271 269 266 264 261 259 256 253 250 247 245 243 243 247 250 251 253 255 259 262 265 267 269 270 270 270 270 269 267 265 262 260 259 259 260 263 266 268 269 272 275 278 281 285 290 295 300 309 314
258 256 255 251 247 243 240 238 238 239 239 241 244 248 251 251 249 247 243 235 227 222 225 230 234 237 239 241 242 243 244 247 250 252 255 256 258 259 260 259 259 258 256 254 252 253 257 262 266 270 273 273 273 272 270 267 265 264 261 258 255 254 252 250 248 247 247 249 250 252 254 256 258 259 261 262 264 266 266 266 265 264 262 259 256 255 254 254 254 257 259 262 264 266 268 271 273 277 281 287 292 298 305
265 264 262 260 257 254 250 247 245 244 243 242 243 247 253 258 261 262 262 257 248 238 234 235 237 240 242 245 248 249 250 252 253 254 256 257 258 260 261 262 263 263 261 259 256 255 257 261 266 270 273 275 274 273 270 268 266 264 262 259 256 253 252 251 250 249 249 250 251 253 254 256 256 257 258 259 260 261 262 262 261 259 257 255 254 253 252 251 250 250 250 253 255 258 262 265 268 271 275 279 284 289 293
271 270 268 266 264 263 262 260 257 255 254 252 250 250 252 259 265 270 273 273 269 262 255 250 248 247 248 249 252 254 256 257 257 257 258 259 259 259 260 262 264 265 265 263 260 257 258 261 265 268 272 275 276 275 273 270 268 266 263 260 257 253 251 251 250 250 250 250 252 253 253 254 255 255 256 256 257 258 258 258 257 255 254 253 253 253 252 251 249 247 246 245 247 250 254 258 261 264 269 273 277 280 283
270 271 270 268 266 266 266 266 265 265 266 265 263 260 255 256 261 267 272 275 275 274 271 266 262 259 257 257 257 258 259 260 260 259 260 260 260 259 259 260 263 265 267 266 263 260 258 260 264 267 270 273 275 276 274 272 270 268 265 262 258 254 252 251 250 250 250 250 250 251 252 252 252 253 253 253 254 254 255 255 255 253 253 254 256 257 257 255 252 248 244 242 242 243 247 251 254 259 263 266 270 274 276
267 268 269 267 265 264 263 263 265 267 270 271 271 269 263 257 256 259 265 268 271 272 273 271 269 267 266 264 262 260 260 260 260 261 261 262 261 260 259 259 261 264 266 267 266 262 259 260 262 266 268 271 274 275 275 274 272 269 267 264 260 256 253 251 250 250 249 249 249 249 250 250 250 250 250 251 251 252 252 253 253 252 253 255 257 259 258 257 254 250 246 242 240 240 241 245 249 253 257 260 263 267 270
264 266 267 266 263 260 258 258 261 264 266 268 270 270 268 263 257 254 257 260 263 265 268 269 269 268 268 266 265 263 261 261 261 261 262 263 263 262 260 259 260 263 265 267 267 264 261 259 261 264 267 270 272 274 275 274 273 271 268 265 261 257 253 251 250 249 249 249 249 249 249 249 249 248 248 249 249 250 250 250 251 251 252 254 256 257 257 256 254 252 249 244 241 238 237 239 242 247 252 255 258 261 265
262 264 265 264 261 258 256 256 257 258 260 262 264 266 267 265 261 255 252 254 256 259 262 265 266 266 266 265 265 264 263 263 263 263 264 265 265 264 262 261 261 262 265 267 267 265 262 260 260 262 265 267 270 272 273 274 273 271 269 266 262 259 255 252 250 249 249 249 249 248 248 248 248 247 247 248 248 249 249 248 249 249 250 253 254 255 255 254 253 252 250 248 244 240 236 233 235 239 245 249 253 257 260
262 263 263 262 261 259 257 256 255 255 256 258 259 261 263 264 263 259 254 253 253 255 258 261 263 264 264 264 264 264 264 264 265 265 266 266 267 266 264 263 262 263 265 266 267 266 263 261 260 261 263 266 268 270 271 272 272 271 269 266 263 260 258 255 252 250 249 249 249 249 248 248 247 247 247 247 247 248 247 247 246 247 248 250 252 253 254 253 253 252 252 251 248 244 239 233 230 231 236 242 248 252 256
263 263 262 261 260 259 258 258 256 255 255 255 256 258 259 261 262 262 259 256 254 255 257 259 261 264 265 265 265 265 265 265 266 267 268 268 267 267 266 265 264 264 265 266 267 266 264 262 260 260 261 263 266 268 270 271 272 271 269 266 263 261 259 257 254 252 251 250 249 249 249 248 247 246 246 246 246 246 246 246 245 245 247 248 250 252 252 252 252 251 252 253 253 251 246 239 233 228 230 235 241 247 251
263 263 262 261 260 259 259 259 257 255 254 254 255 256 258 259 261 262 261 259 258 257 257 259 261 264 265 265 266 266 266 266 267 268 268 268 268 268 267 266 266 265 265 265 266 266 265 263 261 260 260 262 264 266 268 270 271 271 269 266 263 261 260 259 257 254 252 251 250 249 249 248 247 246 245 245 245 245 245 244 244 244 245 247 249 251 252 252 252 251 252 254 255 255 254 249 242 235 231 232 236 242 248
262 262 262 262 261 261 260 259 257 255 253 253 254 255 257 257 258 259 260 260 259 259 258 260 261 263 264 266 266 267 267 268 268 268 268 268 268 268 268 267 267 267 266 266 266 266 265 264 262 261 260 261 263 264 266 268 269 270 270 267 264 262 260 260 258 256 255 253 252 250 249 249 248 247 245 244 244 244 243 243 243 244 244 246 248 250 251 252 252 252 252 254 256 258 259 258 253 247 240 237 237 239 243
260 261 261 262 262 262 261 259 256 254 252 252 253 254 255 256 256 258 259 260 260 260 260 261 261 263 265 267 268 269 269 270 270 269 268 268 268 268 268 268 268 267 267 266 266 266 266 265 264 263 261 261 262 263 264 266 267 268 268 268 266 263 262 260 260 258 256 255 253 252 250 249 248 247 246 245 243 243 242 242 242 243 244 245 247 248 250 251 252 252 253 254 256 259 261 262 260 257 251 247 243 242 243
257 258 260 261 262 262 262 260 257 254 251 251 252 253 254 255 257 258 259 259 260 260 261 262 263 264 266 268 270 270 271 271 271 270 268 268 268 268 267 267 268 268 268 267 267 267 267 267 266 264 263 262 261 262 263 264 265 266 266 267 266 265 263 261 260 259 258 256 254 253 251 249 248 248 247 245 244 242 241 241 241 241 243 244 246 247 249 250 251 252 253 255 256 259 261 264 264 263 259 256 252 249 247
256 257 258 259 260 260 260 259 258 255 252 251 251 252 254 255 257 258 259 259 259 260 261 262 263 265 267 268 269 271 271 271 271 271 270 269 268 267 267 267 267 268 268 268 268 268 268 267 267 265 264 263 262 262 263 263 264 264 265 265 265 265 263 262 261 259 258 257 255 254 252 250 249 248 247 246 244 243 241 240 239 240 241 243 244 246 247 248 249 250 251 253 255 257 260 262 264 265 264 261 258 256 253
256 256 256 256 257 256 256 255 255 254 253 251 251 251 253 255 257 257 258 259 259 259 261 262 263 264 266 267 269 270 271 271 272 273 273 271 270 268 267 267 267 267 267 267 268 268 268 268 267 266 265 264 263 263 263 263 263 264 264 264 264 264 263 262 261 260 258 257 256 254 253 251 249 248 247 247 245 243 241 239 239 239 240 241 243 244 245 246 246 247 248 250 252 255 257 260 263 265 265 265 263 260 259
257 257 255 255 253 252 251 250 251 252 252 251 250 251 252 254 255 256 256 258 258 259 259 261 262 263 265 267 269 271 273 274 275 276 275 273 272 270 268 267 267 267 267 267 267 268 268 267 267 266 265 264 264 263 263 263 264 264 264 263 263 263 263 263 262 260 259 257 256 254 252 251 249 248 247 247 246 244 241 239 238 238 239 240 241 242 243 244 244 245 246 247 249 252 254 257 260 263 265 266 265 264 263
259 259 257 255 253 250 248 246 246 248 249 249 249 249 250 251 252 253 255 256 257 258 258 259 260 262 265 267 269 272 274 275 275 275 275 273 271 270 268 267 267 266 266 267 267 267 267 267 266 265 264 264 264 264 264 263 263 264 263 263 263 263 263 263 262 261 260 259 257 255 253 251 249 248 247 246 246 244 241 239 238 238 238 239 240 241 242 243 243 244 245 246 247 249 251 254 257 260 264 266 267 267 267
259 260 259 259 256 252 248 245 243 244 245 246 247 247 248 249 251 252 253 254 255 257 258 258 259 261 263 265 267 269 271 272 272 271 271 271 270 268 267 266 266 265 265 265 266 266 266 265 265 264 264 264 264 264 264 263 263 263 262 263 263 263 263 263 262 262 261 260 259 257 254 252 250 248 247 246 245 243 241 239 239 238 238 239 240 241 242 242 243 243 244 245 246 248 249 252 255 258 261 264 267 268 270
258 259 260 260 259 256 251 247 243 242 242 243 244 245 247 249 250 252 253 254 256 257 259 259 259 260 261 263 265 266 267 268 268 268 267 267 267 266 265 264 263 263 263 263 263 264 264 264 264 264 263 263 263 263 263 263 262 262 262 262 263 263 263 263 262 262 262 261 260 259 257 254 251 249 247 246 245 243 241 240 239 239 239 239 240 240 241 241 242 243 244 245 246 247 248 250 253 256 259 262 265 268 270
259 259 260 261 260 257 254 250 246 243 242 242 243 245 248 250 251 253 255 256 258 259 260 259 259 259 259 261 263 264 265 265 265 265 263 262 262 262 262 260 258 257 258 259 260 261 262 262 263 263 263 262 262 262 262 262 262 261 262 261 262 262 262 262 262 262 262 261 261 260 259 257 254 250 247 246 245 243 242 241 240 240 240 240 240 241 241 241 241 243 244 245 247 248 249 250 252 254 257 260 263 266 269
262 260 260 260 260 258 257 254 251 247 244 243 244 246 248 250 251 253 254 255 257 257 257 257 257 258 257 259 261 263 264 264 263 261 258 257 256 256 255 254 253 253 254 256 257 258 259 260 261 262 262 261 261 261 261 261 261 261 261 261 261 261 262 263 263 263 262 261 261 260 260 259 256 253 249 246 245 244 243 242 242 241 241 241 241 241 241 241 242 243 245 246 247 248 249 250 252 254 256 259 262 265 268
263 262 261 261 261 260 260 259 256 253 249 247 246 246 247 248 249 251 252 253 253 254 253 253 255 256 256 257 259 262 263 263 260 256 251 253 255 254 250 250 251 252 253 255 256 256 257 258 260 261 262 261 260 259 259 259 259 259 260 260 260 261 262 262 263 264 263 262 261 260 260 259 258 255 251 248 245 245 244 243 243 242 241 241 241 242 242 242 243 244 245 247 248 249 250 251 253 254 256 258 261 263 265
263 264 264 264 263 263 262 261 259 258 255 252 248 246 245 246 247 248 250 251 252 253 253 253 253 254 256 256 258 261 261 261 259 256 253 255 257 256 253 250 248 249 250 252 253 254 256 258 260 262 262 261 260 259 258 258 258 258 259 260 261 261 262 263 263 264 264 263 262 261 260 259 259 257 254 250 247 245 245 245 244 243 242 242 242 242 242 243 244 245 246 247 248 249 250 251 253 254 256 258 260 261 263
261 264 265 265 265 265 264 261 260 259 257 254 251 248 246 245 245 246 249 250 251 252 253 254 254 254 255 256 257 258 259 258 257 257 257 256 254 252 248 244 242 245 250 252 255 257 257 257 259 262 262 261 260 259 259 259 258 259 259 260 261 262 263 263 263 263 262 262 261 260 259 259 258 257 255 252 249 246 246 246 245 244 243 243 242 243 243 243 244 245 246 247 248 249 251 252 253 254 255 257 258 259 260
259 262 264 265 265 264 263 263 262 260 258 255 253 252 249 247 246 246 247 249 250 251 252 253 253 253 254 255 256 257 258 258 257 257 256 255 250 244 239 239 241 245 252 255 260 263 263 263 264 265 267 266 264 263 262 261 260 260 260 260 261 261 262 262 261 260 259 259 259 259 259 258 257 257 255 253 250 248 247 246 246 245 244 244 243 243 244 244 244 245 246 247 249 250 251 252 253 254 255 255 256 257 258
260 261 264 264 265 265 265 265 265 263 260 257 255 253 252 251 250 249 249 250 251 252 252 252 252 252 252 255 257 259 260 259 258 256 255 254 251 246 240 240 243 247 251 253 253 258 266 272 275 276 275 272 268 265 264 263 262 261 260 259 260 260 259 259 259 258 258 258 258 258 257 257 256 256 254 253 251 249 247 246 246 245 245 244 244 244 244 244 245 245 246 247 248 250 251 252 253 253 254 254 254 255 255
262 262 262 263 264 266 266 266 266 264 262 259 256 254 254 254 254 254 253 253 254 254 254 254 253 253 254 255 257 259 260 260 259 258 256 254 253 251 248 242 240 242 249 250 251 257 266 273 277 279 278 275 271 268 267 266 264 262 260 259 258 258 258 257 257 257 257 257 257 256 256 256 255 255 254 253 251 250 248 247 246 245 245 244 244 244 244 244 244 245 246 247 248 249 250 251 252 252 252 253 253 253 253
263 263 263 263 264 265 265 265 265 265 264 261 259 256 255 255 256 255 255 255 255 255 256 255 255 256 257 257 257 257 256 256 257 257 256 254 252 251 248 244 241 241 242 246 253 262 271 274 279 283 281 280 277 274 273 269 266 263 260 259 258 257 257 257 257 257 257 257 256 256 255 255 254 254 253 252 252 250 250 249 248 247 247 246 245 245 244 243 243 244 244 246 247 248 249 250 251 251 252 251 251 251 250
263 263 265 264 264 265 265 265 265 265 265 264 262 260 257 255 254 254 254 254 255 256 257 256 254 254 254 254 254 253 252 252 254 255 255 254 251 249 248 247 246 246 245 246 250 257 266 275 280 282 286 289 285 279 276 271 266 263 260 258 257 256 256 255 256 256 256 256 256 256 255 255 254 254 253 253 252 251 251 250 250 250 250 249 248 247 246 244 243 243 244 245 246 247 248 250 250 251 251 250 250 250 250
264 264 264 263 264 265 265 266 266 266 266 266 264 262 259 256 255 255 255 254 256 257 257 254 252 251 250 250 250 250 250 252 255 256 256 254 252 251 250 249 246 244 245 247 249 252 258 266 272 275 282 289 290 284 277 274 269 265 261 259 257 255 254 254 255 255 256 256 256 256 256 255 255 255 254 253 252 252 251 251 251 251 252 252 252 251 249 248 246 245 244 245 245 247 248 249 250 250 250 250 250 250 250
264 264 264 263 263 265 266 266 265 265 266 266 265 263 260 258 258 256 254 253 254 256 255 253 251 249 248 247 248 250 252 253 255 257 258 258 256 254 253 252 250 249 248 248 249 251 254 259 264 269 274 276 282 286 282 277 273 269 266 262 258 255 253 253 254 254 255 256 256 256 256 256 256 255 255 254 253 252 251 251 251 251 252 253 253 254 253 252 250 249 248 247 247 247 248 249 250 250 250 250 251 251 251
264 262 262 265 266 267 268 265 264 264 266 266 265 262 259 257 255 254 251 250 251 252 253 253 251 249 248 247 248 250 253 254 254 255 256 258 259 258 257 255 254 253 252 250 249 250 253 255 258 261 265 268 271 277 282 280 277 273 269 264 260 256 254 253 253 254 254 255 255 256 256 256 256 256 255 255 253 252 251 250 250 251 252 252 254 254 255 255 254 253 252 251 251 250 250 250 250 250 251 251 252 252 252